Printer-friendly version

IAU Minor Planet Center

Minor Planet Center

MPEC 2006-B85 : 2006 BH99

The following Minor Planet Electronic Circular may be linked-to from your own Web pages, but must not otherwise be redistributed electronically.


Read MPEC 2006-B84 Read MPEC 2006-B86


M.P.E.C. 2006-B85                                Issued 2006 Jan. 30, 13:19 UT

     The Minor Planet Electronic Circulars contain information on unusual
         minor planets and routine data on comets.  They are published
   on behalf of Commission 20 of the International Astronomical Union by the
          Minor Planet Center, Smithsonian Astrophysical Observatory,
                          Cambridge, MA 02138, U.S.A.

                  Supported in part by the Brinson Foundation
                  Supported in part by the TABASGO Foundation
             Prepared using the Tamkin Foundation Computer Network

                              MPC@CFA.HARVARD.EDU
          URL http://cfa-www.harvard.edu/iau/mpc.html  ISSN 1523-6714

                                   2006 BH99

Observations:
     K06B99H* C2006 01 30.24369 09 31 27.80 +10 31 24.6          18.5 V EB085703
     K06B99H  C2006 01 30.25130 09 31 44.83 +10 31 08.2          18.2 V EB085703
     K06B99H  C2006 01 30.25891 09 32 02.04 +10 30 50.2          18.6 V EB085703
     K06B99H  C2006 01 30.26654 09 32 19.50 +10 30 32.3          18.6 V EB085703
     K06B99H  C2006 01 30.30946 09 34 01.07 +10 28 38.7          18.3 V EB085703
     K06B99H  C2006 01 30.31262 09 34 08.69 +10 28 29.5          18.5 V EB085703
     K06B99H  C2006 01 30.31575 09 34 16.33 +10 28 20.8          18.9 V EB085703
     K06B99H  C2006 01 30.40199 09 38 03.24 +10 23 32.8          18.1 V EB085703
     K06B99H  C2006 01 30.40284 09 38 05.58 +10 23 26.7          18.0 V EB085703
     K06B99H  C2006 01 30.40369 09 38 08.17 +10 23 29.4          18.1 V EB085703
     K06B99H  C2006 01 30.40453 09 38 10.44 +10 23 23.4          18.2 V EB085703
     K06B99H  C2006 01 30.43569 09 39 41.81 +10 21 16.7          18.9 V EB085703
     K06B99H  C2006 01 30.43737 09 39 46.77 +10 21 09.8          18.7 V EB085703
     K06B99H  C2006 01 30.43907 09 39 52.05 +10 21 03.0          18.4 V EB085703
     K06B99H  C2006 01 30.44073 09 39 57.11 +10 20 55.6          18.6 V EB085703
     K06B99H  C2006 01 30.48981 09 42 31.48 +10 15 26.1          18.2 R EB085734
     K06B99H  C2006 01 30.49467 09 42 48.42 +10 15 00.8          18.6 R EB085734
     K06B99H  C2006 01 30.49585 09 42 52.48 +10 14 54.5          16.9 R EB085734
     K06B99H  C2006 01 30.49703 09 42 56.64 +10 14 46.8          17.9 R EB085734
     K06B99H  C2006 01 30.51939 09 45 11.88 +10 31 40.5                 EB085474
     K06B99H  C2006 01 30.52204 09 45 21.35 +10 31 30.9          18.6 R EB085474
     K06B99H  C2006 01 30.52434 09 45 29.64 +10 31 23.1                 EB085474
     K06B99H  C2006 01 30.52480 09 45 31.29 +10 31 21.1          18.5 R EB085474

Observer details:
474 Mount John Observatory, Lake Tekapo.  Observer A. C. Gilmore.  0.6-m
    reflector + CCD.
703 Catalina Sky Survey.  Observer R. A. Kowalski.  Measurers E. C. Beshore,
    E. J. Christensen, G. J. Garradd, A. D. Grauer, R. E. Hill, R. A. Kowalski,
    S. M. Larson, R. H. McNaught.  0.68-m Schmidt + CCD.
734 Farpoint Observatory.  Observer G. Hug.  0.7-m reflector + CCD.

Orbital elements:
2006 BH99                                                Earth MOID = 0.0007 AU
Epoch 2006 Mar. 6.0 TT = JDT 2453800.5                  MPC
M 353.23553              (2000.0)            P               Q
n   0.46374047     Peri.   84.00448     -0.81718914     +0.57392263
a   1.6530502      Node   131.00610     -0.55271565     -0.75422559
e   0.6022887      Incl.    4.03144     -0.16342377     -0.31899307
P   2.13           H   27.3           G   0.15           U   6
Residuals in seconds of arc
060130 703 (1.5+  0.5-)   060130 703 (1.2-  3.2-)   060130 734  0.8+  0.4+
060130 703  0.3+  0.5+    060130 703 (1.5+  2.8+)   060130 734  0.1-  0.2+
060130 703  0.5-  0.3+    060130 703  0.3-  0.0     060130 734  0.4+  1.4-
060130 703  0.5-  0.7+    060130 703  0.4+  0.3-    060130 474  0.1-  0.1+
060130 703  1.2+  0.4-    060130 703  1.4-  0.0     060130 474  0.5-  0.1+
060130 703  0.1-  0.6-    060130 703  0.3+  0.5+    060130 474  0.3-  0.7+
060130 703  0.4-  0.3-    060130 703  0.4+  0.2+    060130 474  0.4-  0.4+
060130 703  0.1-  0.4-    060130 734  0.6-  0.6+

Ephemeris:
2006 BH99                a,e,i = 1.65, 0.60, 4                   q = 0.6574
Date    TT    R. A. (2000) Decl.     Delta      r     Elong.  Phase     V
2006 01 25    08 48.55   +11 10.2    0.0675   1.051   170.7     8.7    22.1
2006 01 26    08 50.48   +11 08.4    0.0571   1.041   171.2     8.3    21.7
2006 01 27    08 53.25   +11 06.3    0.0468   1.031   171.6     8.1    21.3
2006 01 28    08 57.57   +11 03.3    0.0364   1.021   171.7     8.0    20.7
2006 01 29    09 05.26   +10 57.9    0.0262   1.011   171.4     8.4    20.0
2006 01 30    09 22.80   +10 43.7    0.0159   1.001   169.2    10.6    19.0
2006 01 31    10 38.21   +09 02.6    0.00614  0.991   153.2    26.7    17.4
2006 02 01    18 31.36   -10 15.9    0.00582  0.981    36.1   143.7    23.5
2006 02 02    19 53.54   -11 14.7    0.0156   0.971    17.4   162.3    30.0
2006 02 03    20 11.81   -11 16.7    0.0258   0.961    14.1   165.5    32.7
2006 02 04    20 19.72   -11 16.5    0.0360   0.951    13.1   166.4    33.9

Timothy B. Spahr             (C) Copyright 2006 MPC           M.P.E.C. 2006-B85

Read MPEC 2006-B84 Read MPEC 2006-B86


Our Web policy. Index to the CBAT/MPC/ICQ pages.


Valid HTML 4.01!